Weather History for KEYE - January, 2013

Change the Weather History Date:

Sunday, January 6, 2013

  Actual Average Record
Temperature  
Mean Temperature 30 °F 28 °F  
Max Temperature 35 °F 35 °F 63 °F (2008)
Min Temperature 25 °F 21 °F -13 °F (2014)
Degree Days  
Heating Degree Days 35 37  
Month to date heating degree days 252 222  
Since 1 July heating degree days 2317 2278  
Cooling Degree Days 0 0  
Month to date cooling degree days 0 0  
Year to date cooling degree days 0 0  
Moisture  
Dew Point 24 °F    
Average Humidity 81    
Maximum Humidity 89    
Minimum Humidity 72    
Precipitation  
Precipitation 0.00 in 0.11 in 0.20 in (1998)
Month to date precipitation 0.01 0.64  
Year to date precipitation 0.01 0.64  
Sea Level Pressure  
Sea Level Pressure 30.16 in    
Wind  
Wind Speed 10 mph (West)    
Max Wind Speed 24 mph    
Max Gust Speed 33 mph    
Visibility 9 miles    
Events      
T = Trace of Precipitation, MM = Missing Value Source: NWS Daily Summary

Daily Weather History Graph

Daily Weather History Graph

Search for Another Location

Airport or City:

Trip Planner

Search our weather history database for the weather conditions in past years. The results will help you decide how hot, cold, wet, or windy it might be!

Date:

Astronomy

Jan. 06, 2013 Rise Set
Actual Time 8:06 AM EST 5:35 PM EST
Civil Twilight 7:36 AM EST 6:06 PM EST
Nautical Twilight 7:02 AM EST 6:39 PM EST
Astronomical Twilight 6:30 AM EST 7:12 PM EST
Moon 2:20 AM EST (1/6) 1:02 PM EST (1/6)
Length of Visible Light 10h 29m
Length of Day
9h 29m
Waning Crescent, 33% of the Moon is Illuminated
Jan 6
Waning Crescent
Jan 11
New
Jan 18
First Quarter
Jan 26
Full
Feb 3
Last Quarter

Hourly Weather History & Observations

Time (EST) Temp. Windchill Dew Point Humidity Pressure Visibility Wind Dir Wind Speed Gust Speed Precip Events Conditions
12:53 AM 34.0 °F 28.0 °F 28.9 °F 82% 30.10 in 10.0 mi SW 6.9 mph - N/A   Overcast
1:53 AM 35.1 °F 27.9 °F 28.9 °F 78% 30.08 in 10.0 mi SW 9.2 mph - N/A   Overcast
2:53 AM 35.1 °F 27.9 °F 28.9 °F 78% 30.07 in 10.0 mi SW 9.2 mph - N/A   Overcast
3:53 AM 34.0 °F 26.6 °F 28.9 °F 82% 30.06 in 10.0 mi SSW 9.2 mph - N/A   Overcast
4:53 AM 34.0 °F 27.2 °F 28.9 °F 82% 30.04 in 10.0 mi South 8.1 mph - N/A   Overcast
5:53 AM 34.0 °F 28.8 °F 28.9 °F 82% 30.03 in 10.0 mi SW 5.8 mph - N/A   Overcast
6:53 AM 34.0 °F 28.0 °F 30.0 °F 85% 30.03 in 10.0 mi SSW 6.9 mph - N/A   Overcast
7:53 AM 34.0 °F 31.0 °F 30.0 °F 85% 30.04 in 10.0 mi SW 3.5 mph - N/A   Overcast
8:53 AM 35.1 °F 28.6 °F 30.0 °F 82% 30.04 in 10.0 mi SW 8.1 mph - N/A   Overcast
9:53 AM 35.1 °F 29.3 °F 30.0 °F 82% 30.05 in 10.0 mi Variable 6.9 mph - N/A   Overcast
10:18 AM 30.2 °F 18.1 °F 26.6 °F 86% 30.05 in 5.0 mi WNW 18.4 mph 26.5 mph N/A   Overcast
10:50 AM 30.2 °F 18.9 °F 23.0 °F 75% 30.07 in 10.0 mi West 16.1 mph 23.0 mph N/A   Overcast
10:51 AM 30.0 °F 19.5 °F 23.0 °F 75% 30.09 in 10.0 mi West 13.8 mph 23.0 mph N/A   Overcast
11:08 AM 30.2 °F 20.2 °F 23.0 °F 75% 30.07 in 10.0 mi West 12.7 mph 24.2 mph N/A   Overcast
11:53 AM 28.0 °F 16.5 °F 21.0 °F 75% 30.11 in 10.0 mi West 15.0 mph 25.3 mph N/A   Overcast
1:53 PM 28.0 °F 17.0 °F 21.9 °F 78% 30.12 in 6.0 mi WNW 13.8 mph 25.3 mph N/A   Haze
2:53 PM 26.1 °F 13.1 °F 19.0 °F 75% 30.16 in 6.0 mi WNW 17.3 mph 23.0 mph N/A   Haze
3:53 PM 25.0 °F 10.9 °F 19.0 °F 78% 30.21 in 6.0 mi NW 19.6 mph 24.2 mph N/A   Haze
4:53 PM 25.0 °F 15.5 °F 19.0 °F 78% 30.25 in 5.0 mi NW 9.2 mph - N/A   Haze
5:53 PM 25.0 °F 17.1 °F 19.9 °F 81% 30.28 in 6.0 mi WNW 6.9 mph - N/A   Haze
6:45 PM 26.6 °F 17.5 °F 21.2 °F 80% 30.28 in 8.0 mi West 9.2 mph - N/A   Overcast
6:53 PM 26.1 °F 16.2 °F 21.0 °F 81% 30.31 in 8.0 mi WNW 10.4 mph - N/A   Overcast
7:37 PM 26.6 °F 18.2 °F 21.2 °F 80% 30.30 in 8.0 mi West 8.1 mph - N/A   Overcast
7:53 PM 26.1 °F 19.4 °F 21.0 °F 81% 30.33 in 8.0 mi West 5.8 mph - N/A   Overcast
9:53 PM 27.0 °F 17.3 °F 21.0 °F 78% 30.36 in 10.0 mi NW 10.4 mph - N/A   Overcast
10:53 PM 27.0 °F 18.7 °F 21.0 °F 78% 30.39 in 10.0 mi NW 8.1 mph - N/A   Overcast
11:53 PM 27.0 °F 20.5 °F 21.0 °F 78% 30.39 in 10.0 mi NW 5.8 mph - N/A   Overcast